Location: Newark
(39.0622°N, 106.5590°E)
Time: 16:07:45
(UTC+00:00)

Vanguard 2 Rocket - Pass Details

Date: 28 January 2020
Orbit: 554 x 3326 km, 32.9° (Epoch: 16 February)

Event Time Altitude Azimuth Distance (km) Brightness Sun altitude
Rises 00:32:53 0° 266° (W) 3,109 9.1 4.1°
Reaches altitude 10° 00:34:58 10° 258° (WSW) 2,374 8.6 4.5°
Maximum altitude 00:40:10 41° 189° (S) 1,519 8.4 5.4°
Drops below altitude 10° 00:48:40 10° 123° (ESE) 3,891 13.5 6.8°
Sets 00:53:06 0° 118° (ESE) 5,372 13.4 7.6°
